x

Western Caribbean - 195 Nm Wsw Of Negril Jamiaca (42057) Wave Buoy

3:50 - Mon 27th Mar 2017 All times are UTC.

  • Sig Wave height 3.0ft
  • Swell Direction
  • Peak Period 7s
  • Average Period 5s
  • Wind
    13mph, 16mph gusts
  • Sea Temp 82°f
  • Ar Temp 80°f
  • Sea Pressure 1014mb

More Historic Weather Station data

Upgrade to MSW Pro to gain access to the past 30 days of data for over 8000 Wavebouys and Weather Stations around the globe.

Join Pro

Comparision Forecast

View Surf forecast
   
Seg 03/27 3:50 3ft 7s 5s 13 16 mph 1014mb 82f 80f
3:40 3ft  -  5s 13 16 mph 1014mb 82f 80f
3:30  -   -   -  13 16 mph 1014mb 81f 80f
3:20  -   -   -  13 16 mph 1014mb 81f 80f
3:10  -   -   -  13 16 mph 1014mb 81f 80f
3:00  -   -   -  13 18 mph 1014mb 81f 80f
2:50 2.5ft 6s 5s 13 16 mph 1014mb 81f 80f
2:40  -   -   -  13 16 mph 1013.9mb 81f 80f
2:30  -   -   -  13 16 mph 1013.9mb 81f 80f
2:20  -   -   -  11 16 mph 1013.8mb 81f 80f
2:10  -   -   -  11 13 mph 1013.6mb 81f 80f
2:00  -   -   -  11 16 mph 1013.6mb 81f 80f
1:50 2.5ft 7s 5s 11 16 mph 1013.5mb 81f 80f
1:40  -   -   -  11 13 mph 1013.5mb 81f 80f
1:30  -   -   -  11 13 mph 1013.5mb 81f 80f
1:20  -   -   -  11 13 mph 1013.5mb 81f 80f
1:10  -   -   -  11 16 mph 1013.4mb 81f 80f
1:00  -   -   -  11 13 mph 1013.4mb 81f 80f
12:50 2.5ft 5s 4s 11 13 mph 1013.1mb 81f 80f
12:40  -   -   -  11 16 mph 1013mb 81f 80f
12:30  -   -   -  11 13 mph 1012.9mb 81f 80f
12:20  -   -   -  11 13 mph 1012.8mb 81f 80f
12:10  -   -   -  11 13 mph 1012.8mb 81f 80f
12:00  -   -   -  11 13 mph 1012.5mb 82f 80f
Dom 03/26 11:50 2.5ft 6s 4s 11 13 mph 1012.5mb 82f 80f
11:40  -   -   -  11 13 mph 1012.5mb 82f 80f
11:30  -   -   -  11 16 mph 1012.4mb 82f 80f
11:20  -   -   -  13 16 mph 1012.3mb 82f 80f
11:10  -   -   -  11 16 mph 1012.1mb 82f 80f
11:00  -   -   -  13 16 mph 1012.1mb 82f 80f
10:50 2.5ft 5s 4s 13 16 mph 1012.1mb 82f 80f
10:40 2.5ft  -  4s 13 16 mph 1012mb 82f 80f
10:30  -   -   -  13 16 mph 1012mb 82f 80f
10:20  -   -   -  13 16 mph 1012mb 82f 80f
10:10  -   -   -  13 16 mph 1012mb 82f 80f
10:00  -   -   -  13 16 mph 1012mb 82f 80f
9:50 2ft 5s 5s 11 13 mph 1012mb 82f 80f
9:40 2ft  -  5s 9 11 mph 1012mb 82f 80f
9:30  -   -   -  11 13 mph 1012mb 82f 80f
9:20  -   -   -  11 13 mph 1011.9mb 82f 80f
9:10  -   -   -  13 16 mph 1011.8mb 82f 80f
9:00  -   -   -  11 13 mph 1011.6mb 82f 80f
8:50 2.5ft 5s 5s 9 11 mph 1011.6mb 82f 80f
8:40  -   -   -  9 11 mph 1011.9mb 82f 80f
8:30  -   -   -  9 11 mph 1011.9mb 82f 80f
8:20  -   -   -  9 11 mph 1012mb 82f 80f
8:10  -   -   -  11 13 mph 1012mb 82f 80f
8:00  -   -   -  9 13 mph 1012.1mb 82f 80f
7:50 2.5ft 6s 5s 11 13 mph 1012.3mb 82f 80f
7:40 2.5ft  -  5s 11 13 mph 1012.4mb 82f 80f
7:30  -   -   -  9 11 mph 1012.5mb 82f 80f
7:20  -   -   -  11 13 mph 1012.6mb 82f 80f
7:10  -   -   -  9 11 mph 1012.8mb 82f 80f
7:00  -   -   -  9 11 mph 1012.8mb 82f 80f
6:50 2.5ft 6s 5s 7 9 mph 1013mb 82f 80f
6:40 2.5ft  -  5s 7 9 mph 1013mb 82f 80f
6:30  -   -   -  7 9 mph 1013.3mb 82f 80f
6:20  -   -   -  7 9 mph 1013.3mb 82f 80f
6:10  -   -   -  9 11 mph 1013.5mb 82f 80f
6:00  -   -   -  9 11 mph 1013.6mb 82f 80f
5:50 2.5ft 6s 5s 9 11 mph 1013.9mb 82f 79f
5:40 2.5ft  -  5s 11
mph
1013.9mb 82f 80f
5:30  -   -   -  11 13 mph 1014mb 82f 80f
5:20  -   -   -  7 9 mph 1014.1mb 82f 80f
5:10  -   -   -  7 9 mph 1014.3mb 82f 80f
5:00  -   -   -  9 11 mph 1014.4mb 82f 80f
4:50 2.5ft 6s 5s 9 11 mph 1014.5mb 82f 80f
4:40 2.5ft  -  5s 9 11 mph 1014.5mb 82f 80f
4:30  -   -   -  9
mph
1014.6mb 82f 80f
4:20  -   -   -  7 9 mph 1014.6mb 82f 80f
4:10  -   -   -  7 9 mph 1014.5mb 82f 80f
4:00  -   -   -  7 11 mph 1014.5mb 81f 80f
3:50 3ft 6s 5s 9 11 mph 1014.6mb 82f 80f
3:40 3ft  -  5s 9 13 mph 1014.5mb 81f 80f
3:30  -   -   -  9 11 mph 1014.5mb 81f 80f
3:20  -   -   -  9 13 mph 1014.6mb 81f 80f
3:10  -   -   -  11 13 mph 1014.5mb 81f 80f
3:00  -   -   -  11 13 mph 1014.6mb 81f 80f
2:50 2.5ft 5s 5s 9 13 mph 1014.5mb 81f 80f
2:40 2.5ft  -  5s 9 11 mph 1014.6mb 81f 80f
2:30  -   -   -  11 13 mph 1014.6mb 81f 80f
2:20  -   -   -  11
mph
1014.5mb 81f 80f
2:10  -   -   -  11 13 mph 1014.5mb 81f 80f
2:00  -   -   -  11 13 mph 1014.4mb 81f 80f
1:50 3.5ft 6s 5s 11 13 mph 1014.4mb 81f 80f
1:40 3.5ft  -  5s 11 16 mph 1014.3mb 81f 80f
1:30  -   -   -  11 16 mph 1014.3mb 81f 80f
1:20  -   -   -  11 13 mph 1014mb 81f 79f
1:10  -   -   -  13 16 mph 1013.9mb 81f 79f
1:00  -   -   -  11 16 mph 1013.9mb 81f 79f
12:50 3.5ft 6s 5s 11 16 mph 1013.6mb 81f 80f
12:40 3.5ft  -  5s 11 13 mph 1013.4mb 81f 79f
12:30  -   -   -  11 16 mph 1013.3mb 81f 79f
12:20  -   -   -  11 16 mph 1013.1mb 81f 79f
12:10  -   -   -  11 16 mph 1013mb 81f 79f
12:00  -   -   -  9 13 mph 1013mb 81f 79f
11:50 3.5ft 5s 5s 11 13 mph 1013mb 81f 79f
11:40 3.5ft  -  5s 11 16 mph 1012.8mb 81f 79f
11:30  -   -   -  9 11 mph 1012.6mb 81f 79f
11:20  -   -   -  11 13 mph 1012.6mb 81f 79f
11:10  -   -   -  9 13 mph 1012.5mb 81f 79f
11:00  -   -   -  11 13 mph 1012.5mb 81f 79f
10:50 3.5ft 6s 5s 9 13 mph 1012.4mb 81f 79f
10:40 3.5ft  -  5s 9 11 mph 1012.3mb 81f 78f
10:30  -   -   -  9 11 mph 1012.3mb 81f 78f
10:20  -   -   -  9 13 mph 1012.1mb 81f 78f
10:10  -   -   -  9 13 mph 1012mb 81f 78f
10:00  -   -   -  9 13 mph 1012mb 81f 78f
9:50 3.5ft 7s 5s 9 11 mph 1012mb 81f 78f
9:40 3.5ft  -  5s 9 11 mph 1011.9mb 81f 77f
9:30  -   -   -  11 13 mph 1011.9mb 81f 77f
9:20  -   -   -  11 13 mph 1011.9mb 81f 77f
9:10  -   -   -  11 16 mph 1011.9mb 81f 77f
9:00  -   -   -  11 13 mph 1011.9mb 81f 77f
8:50 4ft 7s 5s 11 13 mph 1011.9mb 81f 77f
8:40 4ft  -  5s 11 13 mph 1011.9mb 81f 77f
8:30  -   -   -  11 13 mph 1011.9mb 81f 77f
8:20  -   -   -  11 13 mph 1012mb 81f 77f
8:10  -   -   -  11 16 mph 1012mb 81f 76f
8:00  -   -   -  13 18 mph 1012mb 81f 77f
7:50 4ft 7s 5s 13 16 mph 1012.1mb 81f 76f
7:40  -   -   -  16 18 mph 1012.3mb 81f 76f
7:30  -   -   -  16 18 mph 1012.3mb 81f 75f
7:20  -   -   -  18 20 mph 1012.4mb 81f 75f
7:10  -   -   -  20 25 mph 1012.5mb 81f 75f
7:00  -   -   -  22 27 mph 1012.4mb 81f 76f
6:50 4ft 7s 5s 18 22 mph 1012.6mb 81f 76f
6:40 4ft  -  5s 18 22 mph 1012.8mb 81f 77f
6:30  -   -   -  18 22 mph 1012.9mb 81f 77f
6:20  -   -   -  16 22 mph 1012.8mb 81f 79f
6:10  -   -   -  13 18 mph 1013mb 81f 79f
6:00  -   -   -  13 16 mph 1013.1mb 81f 79f
5:50 3.5ft 7s 5s 13 20 mph 1013.3mb 81f 79f
5:40 3.5ft  -  5s 16 20 mph 1013.4mb 81f 79f
5:30  -   -   -  16 20 mph 1013.4mb 81f 79f
5:20  -   -   -  16 18 mph 1013.5mb 81f 79f
5:10  -   -   -  13 18 mph 1013.6mb 81f 79f
5:00  -   -   -  16 18 mph 1013.6mb 81f 79f
4:50 3.5ft 7s 5s 13 18 mph 1013.8mb 81f 79f
4:40  -   -   -  16 18 mph 1013.9mb 81f 79f
4:30  -   -   -  16 18 mph 1013.9mb 81f 80f
4:20  -   -   -  13 18 mph 1014mb 81f 80f
4:10  -   -   -  16 18 mph 1014.1mb 81f 80f
4:00  -   -   -  16 18 mph 1014.1mb - -
3:50 3.5ft 7s 5s 16 18 mph 1014.1mb 81f 80f
3:40 3.5ft  -  5s 16 18 mph 1014.1mb 81f 80f
3:30  -   -   -  16 18 mph 1014.3mb 81f 80f
3:20  -   -   -  16 20 mph 1014.1mb 81f 80f
3:10  -   -   -  16 18 mph 1014.1mb 81f 80f
3:00  -   -   -  16 18 mph 1014.1mb 81f 80f
2:50 3.5ft 7s 5s 16 20 mph 1014.1mb 81f 80f
2:40  -   -   -  16 20 mph 1014mb 81f 80f
2:30  -   -   -  16 20 mph 1014mb 81f 80f
2:20  -   -   -  16 20 mph 1013.9mb 81f 80f
2:10  -   -   -  16 18 mph 1013.9mb 81f 80f
2:00  -   -   -  16 18 mph 1013.9mb 81f 80f
1:50 4ft 7s 5s 16 18 mph 1013.9mb 81f 80f
1:40  -   -   -  16 18 mph 1013.9mb 81f 80f
1:30  -   -   -  16 18 mph 1013.9mb 81f 80f
1:20  -   -   -  16 18 mph 1013.8mb 81f 80f
1:10  -   -   -  16 18 mph 1013.5mb 81f 80f
1:00  -   -   -  13 18 mph 1013.4mb 81f 80f
12:50 4ft  -  5s 13 18 mph 1013.3mb 81f -
12:40 4ft  -  5s 13 18 mph 1013.1mb 81f 80f
12:30  -   -   -  13 16 mph 1013mb 81f 80f
12:20  -   -   -  13 16 mph 1013mb 81f 80f
12:10  -   -   -  13 16 mph 1013mb 81f 80f
12:00  -   -   -  13 16 mph 1012.9mb 81f 80f
Sáb 03/25 11:50 4ft 8s 5s 13 16 mph 1012.8mb 81f 80f
11:40 4ft  -  5s 13 16 mph 1012.6mb 81f 80f
11:30  -   -   -  13 16 mph 1012.5mb 81f 80f
11:20  -   -   -  11 13 mph 1012.5mb 81f 80f
11:10  -   -   -  11 13 mph 1012.5mb 81f 79f
11:00  -   -   -  2 4 mph 1012.4mb 81f 78f
10:50 4.5ft 7s 6s 2 4 mph 1012.3mb 81f 78f
10:40  -   -   -  2 9 mph 1012.3mb 81f 77f
10:30  -   -   -  9 16 mph 1012.4mb 81f 76f
10:20  -   -   -  7 16 mph 1012.4mb 81f 75f
10:10  -   -   -  11 20 mph 1012.3mb 81f 74f
10:00  -   -   -  18 27 mph 1012.3mb 81f 73f
9:50 4.5ft 8s 6s 16 20 mph 1012.3mb 81f 72f
9:40 4.5ft  -  6s 20 31 mph 1012.5mb 81f 73f
9:30  -   -   -  18 25 mph 1012.5mb 81f 76f
9:20  -   -   -  18 25 mph 1012.1mb 82f 78f
9:10  -   -   -  11 22 mph 1012.1mb 82f 80f
9:00  -   -   -  7 9 mph 1012.3mb 82f 80f
8:50 4.5ft 8s 6s 7 11 mph 1012.4mb 82f 80f
8:40 4.5ft  -  6s 7 9 mph 1012.5mb 82f 80f
8:30  -   -   -  9 11 mph 1012.5mb 82f 80f
8:20  -   -   -  9 11 mph 1012.6mb 82f 80f
8:10  -   -   -  9 11 mph 1012.8mb 82f 80f
8:00  -   -   -  9 11 mph 1012.9mb 82f 80f
7:50 4.5ft 8s 6s 9 11 mph 1013mb 81f 80f
7:40  -   -   -  9 11 mph 1013.3mb 82f 80f
7:30  -   -   -  9 11 mph 1013.3mb 82f 80f
7:20  -   -   -  9 11 mph 1013.5mb 82f 80f
7:10  -   -   -  9 13 mph 1013.5mb 82f 80f
7:00  -   -   -  11 13 mph 1013.6mb 82f 80f
6:50 4ft 8s 5s 9 13 mph 1013.8mb 81f 80f
6:40 4ft  -  5s 9 13 mph 1014mb 82f 80f
6:30  -   -   -  9 11 mph 1014mb 82f 80f
6:20  -   -   -  9 11 mph 1014.3mb 81f 80f
6:10  -   -   -  9 11 mph 1014.4mb 81f 80f
6:00  -   -   -  9
mph
1014.5mb 82f 80f
5:50 4ft 8s 5s 9 11 mph 1014.8mb 81f 80f
5:40 4ft  -  5s 9 13 mph 1015mb - 80f
5:30  -   -   -  9 13 mph 1015mb 81f 80f
5:20  -   -   -  9 11 mph 1015.3mb 81f 80f
5:10  -   -   -  11 13 mph 1015.3mb 81f 80f
5:00  -   -   -  11 13 mph 1015.4mb 81f 80f
4:50 4.5ft 8s 5s 11 16 mph 1015.5mb 81f 80f
4:40 4.5ft  -  5s 11 16 mph 1015.6mb 81f 80f
4:30  -   -   -  13 16 mph 1015.8mb 81f 80f
4:20  -   -   -  13 16 mph 1016mb 81f 80f
4:10  -   -   -  11 16 mph 1016mb 81f 80f
4:00  -   -   -  11 16 mph 1016mb 81f 80f
3:50 3.5ft 7s 5s 11 16 mph 1016mb 81f 80f
3:40 3.5ft  -  5s 11 13 mph 1016mb 81f 80f
3:30  -   -   -  11 13 mph 1016mb 81f 80f
3:20  -   -   -  11 13 mph 1015.9mb 81f 80f
3:10  -   -   -  13 16 mph 1015.8mb 81f 80f
3:00  -   -   -  13 16 mph 1015.8mb 81f 80f
2:50 3.5ft 7s 5s 13 18 mph 1015.8mb 81f 80f
2:40 3.5ft  -  5s 11 16 mph 1015.8mb 81f 80f
2:30  -   -   -  11 16 mph 1015.8mb 81f 79f
2:20  -   -   -  16 20 mph 1015.8mb 81f 79f
2:10  -   -   -  16 22 mph 1015.6mb 81f 80f
2:00  -   -   -  11 16 mph 1015.8mb 81f 80f
1:50 3.5ft 7s 5s 13 16 mph 1015.6mb 81f 80f
1:40  -   -   -  13 18 mph 1015.6mb 81f 80f
1:30  -   -   -  13 16 mph 1015.5mb 81f 80f
1:20  -   -   -  11 13 mph 1015.5mb 81f 80f
1:10  -   -   -  11 16 mph 1015.5mb 81f 80f
1:00  -   -   -  11 13 mph 1016.1mb - 80f
12:50 4ft 7s 5s 11 16 mph 1015.3mb 81f 80f
12:40  -   -   -  11 13 mph 1015.1mb 81f 80f
12:30  -   -   -  11 16 mph 1015mb 81f 80f
12:20  -   -   -  11 16 mph 1014.9mb 81f 80f
12:10  -   -   -  11 13 mph 1014.5mb 81f 79f
12:00  -   -   -  13 16 mph 1014.5mb 81f 79f
11:50 4.5ft 8s 5s 13 18 mph 1014.4mb 81f 79f
11:40 4.5ft  -  5s 13 18 mph 1014.3mb 81f 79f
11:30  -   -   -  13 16 mph 1014.1mb 81f 79f
11:20  -   -   -  13 16 mph 1014mb 81f 79f
11:10  -   -   -  13 16 mph 1013.9mb 81f 79f
11:00  -   -   -  13 16 mph 1013.8mb 81f 79f
10:50 5ft 7s 5s 13 18 mph 1013.5mb 81f 79f
10:40 5ft  -  5s 13 18 mph 1013.4mb 81f 79f
10:30  -   -   -  13 18 mph 1013.1mb 81f 79f
10:20  -   -   -  13 18 mph 1013mb 81f 79f
10:10  -   -   -  13 18 mph 1013mb 81f 79f
10:00  -   -   -  13 16 mph 1013mb 81f 79f
9:50 4.5ft 8s 5s 13 16 mph 1013mb 81f 79f
9:40 4.5ft  -  5s 13 18 mph 1013mb 81f 79f
9:30  -   -   -  13 16 mph 1013mb 81f 79f
9:20  -   -   -  13 18 mph 1012.9mb 81f 79f
9:10  -   -   -  13 18 mph 1013mb 81f 79f
9:00  -   -   -  13 18 mph 1013mb 81f 79f
8:50 4.5ft 8s 5s 13 18 mph 1013mb 81f 79f
8:40  -   -   -  13 18 mph 1013mb 81f 79f
8:30  -   -   -  16 18 mph 1013.1mb 81f 79f
8:20  -   -   -  16 20 mph 1013mb 81f 79f
8:10  -   -   -  16 20 mph 1013.1mb 81f 79f
8:00  -   -   -  13 18 mph 1013.3mb 81f 79f
7:50 4.5ft 5s 5s 13 18 mph 1013.3mb 81f 79f
7:40 4.5ft  -  5s 16 20 mph 1013.4mb 81f 79f
7:30  -   -   -  16 20 mph 1013.5mb 81f 79f
7:20  -   -   -  16 18 mph 1013.6mb 81f 79f
7:10  -   -   -  13 18 mph 1013.9mb 81f 79f
7:00  -   -   -  16 18 mph 1013.9mb - 79f
6:50 4.5ft 8s 5s 16 20 mph 1014mb 81f 79f
6:40 4.5ft  -  5s 16 20 mph 1014.1mb 81f 79f
6:30  -   -   -  18 20 mph 1014.3mb 81f 79f
6:20  -   -   -  16 18 mph 1014.5mb 81f 79f
6:10  -   -   -  16 20 mph 1014.6mb 81f 79f
6:00  -   -   -  16 20 mph 1014.6mb 81f 79f
5:50 4.5ft 8s 5s 16 20 mph 1014.8mb 81f 79f
5:40  -   -   -  18 20 mph 1015mb 81f 79f
5:30  -   -   -  16 20 mph 1015mb 81f 79f
5:20  -   -   -  16 20 mph 1015.1mb 81f 79f
5:10  -   -   -  16 20 mph 1015.4mb 81f 79f
5:00  -   -   -  16 20 mph 1015.5mb 81f 79f
4:50 4.5ft 7s 5s 16 20 mph 1015.5mb 81f 79f
4:40 4.5ft  -  5s 18 20 mph 1015.6mb 81f 79f
4:30  -   -   -  18 20 mph 1015.6mb 81f 79f
4:20  -   -   -  16 20 mph 1015.6mb 81f 79f
4:10  -   -   -  16 20 mph 1015.8mb 81f 79f
4:00  -   -   -  16 20 mph 1015.8mb 81f 79f
3:50 4.5ft 8s 5s 16 20 mph 1015.8mb 81f 79f
3:40 4.5ft  -  5s 16 18 mph 1015.9mb 81f 79f
3:30  -   -   -  16 18 mph 1016mb 81f 79f
3:20  -   -   -  16 20 mph 1015.9mb 81f 79f
3:10  -   -   -  16 18 mph 1016mb 81f 79f
3:00  -   -   -  16 18 mph 1016mb 81f 79f
2:50 5ft 7s 5s 16 18 mph 1015.8mb 81f 79f
2:40  -   -   -  13 18 mph 1015.9mb 81f 79f
2:30  -   -   -  16 18 mph 1015.9mb 81f 79f
2:20  -   -   -  13 18 mph 1015.8mb 81f 79f
2:10  -   -   -  16 18 mph 1015.8mb 81f 79f
2:00  -   -   -  16 18 mph 1015.8mb - 79f
1:50 4.5ft 7s 5s 16 18 mph 1015.5mb 81f 79f
1:40 4.5ft  -  5s 16 20 mph 1015.5mb 81f 79f
1:30  -   -   -  16 20 mph 1015.4mb 81f 79f
1:20  -   -   -  16 20 mph 1015.3mb 81f 79f
1:10  -   -   -  16 18 mph 1015.1mb 81f 79f
1:00  -   -   -  16 18 mph 1015mb 81f 79f
12:50 5ft 8s 5s 16 20 mph 1015mb 81f 79f
12:40 5ft  -  5s 16 18 mph 1014.9mb 81f 79f
12:30  -   -   -  16 20 mph 1014.6mb 81f 79f
12:20  -   -   -  16 20 mph 1014.6mb 81f 79f
12:10  -   -   -  16 20 mph 1014.6mb 81f 79f
12:00  -   -   -  16 20 mph 1014.5mb 81f 79f
Sex 03/24 11:50 5ft 7s 5s 18 22 mph 1014.4mb 81f 79f
11:40 5ft  -  5s 18 20 mph 1014.3mb 81f 79f
11:30  -   -   -  16 20 mph 1014.1mb 81f 79f
11:20  -   -   -  18 20 mph 1014mb 81f 79f
11:10  -   -   -  18 20 mph 1014mb 81f 79f
11:00  -   -   -  18 20 mph 1014mb 81f 79f
10:50 5ft 7s 5s 18 22 mph 1014mb 81f 79f
10:40  -   -   -  18 22 mph 1013.8mb 81f 79f
10:30  -   -   -  18 20 mph 1013.9mb 81f 79f
10:20  -   -   -  18 22 mph 1013.9mb 81f 79f
10:10  -   -   -  18 20 mph 1013.9mb 81f 80f
10:00  -   -   -  16 20 mph 1013.9mb 81f 80f
9:50 5.5ft 7s 5s 18 20 mph 1013.9mb 81f 79f
9:40 5.5ft  -  5s 16 20 mph 1013.8mb 81f 80f
9:30  -   -   -  16 20 mph 1013.9mb 81f 80f
9:20  -   -   -  16 20 mph 1013.9mb 81f 80f
9:10  -   -   -  18 22 mph 1013.8mb 81f 80f
9:00  -   -   -  18 22 mph 1013.8mb - 80f
8:50 6ft 7s 6s 18 22 mph 1013.8mb 81f 80f
8:40 6ft  -  6s 18 22 mph 1013.9mb 81f 80f
8:30  -   -   -  18 22 mph 1014mb 81f 80f
8:20  -   -   -  18 22 mph 1014mb 81f 80f
8:10  -   -   -  18 22 mph 1014.1mb 81f 80f
8:00  -   -   -  18 22 mph 1014.1mb 81f 80f
7:50 5.5ft 7s 5s 18 22 mph 1014.5mb 81f 79f
7:40 5.5ft  -  5s 18 22 mph 1014.6mb 81f 80f
7:30  -   -   -  18 20 mph 1014.8mb 81f 80f
7:20  -   -   -  18 22 mph 1014.9mb 81f 80f
7:10  -   -   -  16 20 mph 1015mb 81f 80f
7:00  -   -   -  18 20 mph 1015.1mb 81f 79f
6:50 5.5ft 7s 5s 16 20 mph 1015.4mb 81f 80f
6:40  -   -   -  18 22 mph 1015.4mb 81f 79f
6:30  -   -   -  18 22 mph 1015.5mb 81f 79f
6:20  -   -   -  18 22 mph 1015.6mb 81f 79f
6:10  -   -   -  18 22 mph 1015.6mb 81f 79f
6:00  -   -   -  18 22 mph 1015.8mb 81f 79f
5:50 6ft 6s 5s 18 22 mph 1016mb 81f 79f
5:40 6ft  -  5s 18 22 mph 1016mb 81f 79f
5:30  -   -   -  20 25 mph 1016.1mb 81f 79f
5:20  -   -   -  20 25 mph 1016.3mb 81f 79f
5:10  -   -   -  20 25 mph 1016.5mb 81f 79f
5:00  -   -   -  20 25 mph 1016.5mb 81f 79f
4:50 5.5ft 7s 5s 20 25 mph 1016.6mb 81f 79f
4:40 5.5ft  -  5s 20 25 mph 1016.8mb 81f 79f
4:30  -   -   -  20 27 mph 1017mb 81f 79f
4:20  -   -   -  20 25 mph 1017mb 81f 79f
4:10  -   -   -  20 25 mph 1017.1mb 81f 79f
4:00  -   -   -  20 25 mph 1017.1mb 81f 79f
3:50 6ft 6s 5s 20 25 mph 1017.3mb 81f 79f
3:40 6ft  -  5s 20 25 mph 1017.4mb 81f 79f
3:30  -   -   -  20 25 mph 1017.4mb 81f 79f
3:20  -   -   -  20 25 mph 1017.4mb 81f 79f
3:10  -   -   -  20 25 mph 1017.4mb 81f 79f
3:00  -   -   -  20 22 mph 1017.4mb 81f 79f
2:50 5ft 6s 5s 20 25 mph 1017.3mb 81f 79f
2:40 5ft  -  5s 20 25 mph 1017.3mb 81f 79f
2:30  -   -   -  20 25 mph 1017.1mb - 79f
2:20  -   -   -  20 25 mph 1017.1mb 81f 79f
2:10  -   -   -  20 22 mph 1017.1mb 81f 79f
2:00  -   -   -  20 25 mph 1017.1mb 81f 79f
1:50 4.5ft 6s 5s 20 25 mph 1017.1mb 81f 79f
1:40  -   -   -  20 25 mph 1017mb 81f 79f
1:30  -   -   -  20 25 mph 1016.9mb 81f 79f
1:20  -   -   -  20 27 mph 1016.9mb 81f 79f
1:10  -   -   -  20 25 mph 1016.6mb 81f 79f
1:00  -   -   -  20 25 mph 1016.5mb 81f 79f
12:50 5ft 6s 5s 20 25 mph 1016.5mb 81f 79f
12:40 5ft  -  5s 20 25 mph 1016.4mb 81f 79f
12:30  -   -   -  20 25 mph 1016.3mb 81f 79f
12:20  -   -   -  20 25 mph 1016.3mb 81f 79f
12:10  -   -   -  20 25 mph 1016.1mb 81f 79f
12:00  -   -   -  18 20 mph 1016mb 81f 80f
11:50 4.5ft 6s 5s 18 22 mph 1016mb 81f 79f
11:40 4.5ft  -  5s 18 22 mph 1015.9mb 81f 79f
11:30  -   -   -  18 20 mph 1015.8mb 81f 79f
11:20  -   -   -  18 22 mph 1015.5mb 81f 79f
11:10  -   -   -  20 25 mph 1015.5mb 81f 79f
11:00  -   -   -  18 22 mph 1015.4mb 81f 79f
10:50 4ft 6s 5s 18 22 mph 1015.3mb 81f 79f
10:40 4ft  -  5s 18 22 mph 1015.1mb 81f 79f
10:30  -   -   -  20 25 mph 1015.3mb 81f 79f
10:20  -   -   -  18 22 mph 1015.1mb 81f 79f
10:10  -   -   -  18 22 mph 1015mb 81f 79f
10:00  -   -   -  18 22 mph 1015.1mb 81f 79f
9:50 4.5ft 6s 5s 18 22 mph 1015mb 81f 79f
9:40 4.5ft  -  5s 18 22 mph 1015mb 81f 79f
9:30  -   -   -  18 22 mph 1015mb 81f 79f
9:20  -   -   -  18 22 mph 1015mb 81f 79f
9:10  -   -   -  20 22 mph 1015mb 81f 79f
9:00  -   -   -  18 22 mph 1015mb 81f 79f
8:50 5ft 6s 5s 18 22 mph 1015mb 81f 79f
8:40 5ft  -  5s 18 22 mph 1015mb 81f 79f
8:30  -   -   -  18 22 mph 1015mb 81f 79f
8:20  -   -   -  18 22 mph 1015mb 81f 79f
8:10  -   -   -  20 25 mph 1015.1mb 81f 79f
8:00  -   -   -  18 22 mph 1015.3mb 81f 79f
7:50 5ft 7s 5s 20 27 mph 1015.4mb 81f 78f
7:40 5ft  -  5s 20 22 mph 1015.5mb 81f 78f
7:30  -   -   -  20 22 mph 1015.6mb 81f 78f
7:20  -   -   -  20 25 mph 1015.8mb 81f 79f
7:10  -   -   -  20 25 mph 1016mb 81f 79f
7:00  -   -   -  18 22 mph 1016mb 81f 79f
6:50 5ft 6s 5s 18 25 mph 1016mb 81f 79f
6:40  -   -   -  18 22 mph 1016mb 81f 79f
6:30  -   -   -  18 22 mph 1016.3mb 81f 79f
6:20  -   -   -  18 25 mph 1016.5mb 81f 79f
6:10  -   -   -  18 22 mph 1016.5mb 81f 79f
6:00  -   -   -  20 25 mph 1016.5mb 81f 79f
5:50 5ft 6s 5s 20 25 mph 1016.5mb 81f 79f
5:40 5ft  -  5s 18 22 mph 1016.6mb 81f 79f
5:30  -   -   -  18 22 mph 1016.8mb 81f 79f
5:20  -   -   -  18 22 mph 1016.9mb 81f 79f
5:10  -   -   -  16 20 mph 1017mb 81f 79f
5:00  -   -   -  16 20 mph 1017.3mb 81f 79f
4:50 5.5ft 7s 5s 16 20 mph 1017.3mb 81f 79f
4:40  -   -   -  16 18 mph 1017.4mb 81f 79f
4:30  -   -   -  18 20 mph 1017.4mb 81f 79f
4:20  -   -   -  18 22 mph 1017.5mb 81f 79f
4:10  -   -   -  18 22 mph 1017.5mb 81f 79f
4:00  -   -   -  18 22 mph 1017.6mb 81f 79f
3:50 5.5ft 7s 5s 20 22 mph 1017.5mb 81f 79f
3:40 5.5ft  -  5s 20 25 mph 1017.6mb 81f 79f
3:30  -   -   -  20 25 mph 1017.5mb 81f 79f
3:20  -   -   -  20 25 mph 1017.5mb 81f 79f
3:10  -   -   -  20 25 mph 1017.5mb 81f 79f
3:00  -   -   -  20 27 mph 1017.4mb 81f 79f
2:50 5.5ft 6s 5s 20 25 mph 1017.1mb 81f 79f
2:40  -   -   -  20 27 mph 1017.1mb 81f 79f
2:30  -   -   -  20 25 mph 1017.1mb 81f 79f
2:20  -   -   -  22 27 mph 1017mb 81f 79f
2:10  -   -   -  22 27 mph 1016.8mb 81f 79f
2:00  -   -   -  20 27 mph 1016.8mb 81f 79f
1:50 5ft 6s 5s 20 25 mph 1016.5mb 81f 79f
1:40  -   -   -  22 27 mph 1016.4mb 81f 79f
1:30  -   -   -  22 27 mph 1016.3mb 81f 79f
1:20  -   -   -  22 27 mph 1016.1mb 81f 79f
1:10  -   -   -  22 27 mph 1016.1mb 81f 79f
1:00  -   -   -  20 25 mph 1016mb 81f -
12:50 5ft 6s 5s 22 27 mph 1015.8mb 81f 78f
12:40  -   -   -  22 29 mph 1015.8mb 81f 78f
12:30  -   -   -  22 27 mph 1015.6mb 81f 78f
12:20  -   -   -  22 27 mph 1015.5mb 81f 78f
12:10  -   -   -  22 27 mph 1015.4mb 81f 78f
12:00  -   -   -  20 27 mph 1015.3mb 81f 80f
Qui 03/23 11:50 5.5ft 7s 5s 20 25 mph 1015.3mb 81f 80f
11:40  -   -   -  20 27 mph 1015.1mb 81f 80f
11:30  -   -   -  20 25 mph 1015mb 81f 80f
11:20  -   -   -  20 25 mph 1015mb 81f 80f
11:10  -   -   -  20 22 mph 1014.9mb 81f 80f
11:00  -   -   -  20 25 mph 1014.8mb - 80f
10:50 5ft 6s 5s 20 25 mph 1014.5mb 81f 80f
10:40  -   -   -  20 25 mph 1014.5mb 81f 80f
10:30  -   -   -  20 25 mph 1014.6mb 81f 80f
10:20  -   -   -  20 25 mph 1014.6mb 81f 80f
10:10  -   -   -  20 25 mph 1014.5mb 81f 80f
10:00  -   -   -  20 25 mph 1014.4mb 81f 80f
9:50 5ft 6s 5s 18 22 mph 1014.3mb 81f 80f
9:40  -   -   -  20 25 mph 1014.4mb 81f 80f
9:30  -   -   -  20 22 mph 1014.4mb 81f 80f
9:20  -   -   -  20 22 mph 1014.4mb 81f 80f
9:10  -   -   -  18 22 mph 1014.4mb 81f 80f
9:00  -   -   -  18 22 mph 1014.4mb - 80f
8:50 4.5ft 6s 5s 18 22 mph 1014.5mb 81f 80f
8:40  -   -   -  18 22 mph 1014.5mb 81f 80f
8:30  -   -   -  18 22 mph 1014.4mb 81f 80f
8:20  -   -   -  18 22 mph 1014.5mb 81f 80f
8:10  -   -   -  18 22 mph 1014.5mb 81f 80f
8:00  -   -   -  16 20 mph 1014.6mb 81f 80f
7:50 4.5ft 6s 5s 16 20 mph 1014.8mb 81f 80f
7:40 4.5ft  -  5s 16 20 mph 1015mb 81f 80f
7:30  -   -   -  16 20 mph 1015mb 81f 80f
7:20  -   -   -  16 18 mph 1015mb 81f 80f
7:10  -   -   -  16 18 mph 1015mb 81f 80f
7:00  -   -   -  16 18 mph 1015.1mb 81f 80f
6:50 5ft 5s 5s 16 18 mph 1015.3mb 81f 80f
6:40 5ft  -  5s 16 18 mph 1015.5mb 81f 80f
6:30  -   -   -  16 18 mph 1015.8mb 81f 80f
6:20  -   -   -  16 20 mph 1015.9mb 81f 80f
6:10  -   -   -  16 18 mph 1016mb 81f 80f
6:00  -   -   -  16 18 mph 1016mb 81f 80f
5:50 4.5ft 6s 5s 16 20 mph 1016.3mb 81f 80f
5:40 4.5ft  -  5s 16 20 mph 1016.3mb 81f 80f
5:30  -   -   -  16 20 mph 1016.5mb 81f 80f
5:20  -   -   -  16 20 mph 1016.5mb 81f 80f
5:10  -   -   -  16 20 mph 1016.6mb 81f 80f
5:00  -   -   -  16 22 mph 1016.8mb 81f 80f
4:50 4.5ft 6s 5s 18 20 mph 1016.9mb 81f 80f
4:40 4.5ft  -  5s 18 20 mph 1016.9mb 81f 80f
4:30  -   -   -  18 22 mph 1016.9mb 81f 80f
4:20  -   -   -  16 20 mph 1017.1mb 81f 80f
4:10  -   -   -  16 20 mph 1017.1mb 81f 80f
4:00  -   -   -  16 20 mph 1017mb 81f 80f
3:50 4.5ft 6s 5s 16 20 mph 1017.1mb 81f 80f
3:40 4.5ft  -  5s 16 20 mph 1017.1mb 81f 80f
3:30  -   -   -  16 20 mph 1017.1mb 81f 79f
3:20  -   -   -  16 20 mph 1017.1mb 81f 79f
3:10  -   -   -  16 20 mph 1017.1mb 81f 80f
3:00  -   -   -  16 20 mph 1017mb 81f 80f
2:50 4.5ft 6s 5s 16 20 mph 1016.9mb 81f 80f
2:40  -   -   -  16 20 mph 1016.9mb 81f 79f
2:30  -   -   -  16 20 mph 1016.9mb 81f 79f
2:20  -   -   -  18 20 mph 1016.9mb 81f 79f
2:10  -   -   -  18 22 mph 1016.9mb 81f 79f
2:00  -   -   -  18 25 mph 1016.8mb 81f 79f
1:50 4ft 5s 4s 18 22 mph 1016.6mb 81f 79f
1:40 4ft  -  4s 18 22 mph 1016.8mb - 79f
1:30  -   -   -  18 22 mph 1016.8mb 81f 79f
1:20  -   -   -  18 22 mph 1016.5mb 81f 79f
1:10  -   -   -  18 22 mph 1016.5mb 81f 79f
1:00  -   -   -  18 22 mph 1016.4mb 81f 79f
12:50 3.5ft 5s 4s 20 25 mph 1016.3mb 81f 79f
12:40 3.5ft  -  4s 20 22 mph 1016.1mb 81f 79f
12:30  -   -   -  20 25 mph 1016mb - 79f
12:20  -   -   -  20 22 mph 1016mb 81f 79f
12:10  -   -   -  20 25 mph 1015.8mb 81f 79f
12:00  -   -   -  20 25 mph 1015.6mb 81f 79f
11:50 3.5ft 5s 4s 18 22 mph 1015.5mb 81f 79f
11:40 3.5ft  -  4s 18 22 mph 1015.5mb 81f 79f
11:30  -   -   -  18 22 mph 1015.5mb 81f 79f
11:20  -   -   -  18 22 mph 1015.4mb 81f 79f
11:10  -   -   -  18 22 mph 1015.4mb 81f 79f
11:00  -   -   -  16 20 mph 1015.3mb 81f 79f
10:50 3.5ft 5s 4s 13 18 mph 1015mb 81f 79f
10:40  -   -   -  16 20 mph 1014.9mb 81f 79f
10:30  -   -   -  16 18 mph 1014.9mb 81f 79f
10:20  -   -   -  16 18 mph 1014.8mb 81f 79f
10:10  -   -   -  16 20 mph 1014.6mb 81f 79f
10:00  -   -   -  16 20 mph 1014.6mb 81f 79f
9:50 3.5ft 5s 4s 16 20 mph 1014.5mb 81f 79f
9:40 3.5ft  -  4s 18 20 mph 1014.5mb 81f 79f
9:30  -   -   -  18 22 mph 1014.5mb 81f 79f
9:20  -   -   -  18 20 mph 1014.4mb 81f 79f
9:10  -   -   -  18 22 mph 1014.5mb 81f 78f
9:00  -   -   -  18 22 mph 1014.4mb 81f 79f
8:50 3.5ft 5s 4s 18 22 mph 1014.4mb 81f 78f
8:40  -   -   -  18 20 mph 1014.4mb 81f 79f
8:30  -   -   -  18 22 mph 1014.5mb 81f 79f
8:20  -   -   -  18 22 mph 1014.4mb - 79f
8:10  -   -   -  18 22 mph 1014.4mb 81f 79f
8:00  -   -   -  18 25 mph 1014.5mb 81f 79f
7:50 3.5ft 5s 4s 18 20 mph 1014.4mb 81f 79f
7:40  -   -   -  18 22 mph 1014.5mb 81f 79f
7:30  -   -   -  18 22 mph 1014.5mb 81f 79f
7:20  -   -   -  18 22 mph 1014.5mb 81f 79f
7:10  -   -   -  18 22 mph 1014.6mb 81f 79f
7:00  -   -   -  18 22 mph 1014.6mb 81f 79f
6:50 3.5ft 5s 4s 18 22 mph 1014.9mb 81f 79f
6:40  -   -   -  18 22 mph 1015mb 81f 79f
6:30  -   -   -  18 22 mph 1015mb 81f 79f
6:20  -   -   -  18 22 mph 1015mb 81f 79f
6:10  -   -   -  18 20 mph 1015.1mb 81f 79f
6:00  -   -   -  18 22 mph 1015.3mb 81f 79f
5:50 4ft 6s 5s 18 22 mph 1015.4mb 81f 79f
5:40 4ft  -  5s 18 20 mph 1015.5mb 81f 79f
5:30  -   -   -  18 22 mph 1015.5mb 81f 79f
5:20  -   -   -  18 20 mph 1015.8mb 81f 79f
5:10  -   -   -  18 20 mph 1015.8mb 81f 79f
5:00  -   -   -  16 22 mph 1016mb 81f 79f
4:50 3.5ft 5s 4s 18 22 mph 1016mb 81f 79f